EHI
0 0 0 0 0 0 0 0 0 0 0 0 0 0 0 0 0 0 0 0 0 0 0 0 0 0 0 0 0 0 0 0 0 0 0 0 0 0
0 0 0 0 0 0 0 0 0 0 0 0 0 0 0 0 0 0 0 0 0 0 0 0 0 0 0 0 0 0 0 0 0 0 0 0 0 0
0 0 0 0 0 0 0 0 0 0 0 0 0 0 0 0 0 0 0 0 0 0 0 0 0 0 0 0 0 0 0 0 0 0 0 0 0 0
0 0 0 0 0 0 0 0 0 0 0 0 0 0 0 0 0 0 0 0 0 0 0 0 0 0 0 0 0 0 0 0 0 0 0 0 0 0
0 0 0 0 0 0 0 0 0 0 0 0 0 0 0 0 0 0 0 0 0 0 0 0 0 0 0 0 0 0 0 0 0 0 0 0 0 0
0 0 0 0 0 0 0 0 0 0 0 0 0 0 0 0 0 0 0 0 0 0 0 0 0 0 0 0 0 0 0 0 0 0 0 0 0 0
0 0 0 0 0 0 0 0 0 0 0 0 0 0 0 0 0 0 0 0 0 0 0 0 0 0 0 0 0 0 0 0 0 0 0 0 0 0
0 0 0 0 0 0 0 0 0 0 0 0 0 0 0 0 0 0 0 0 0 0 0 0 0 0 0 0 0 0 0 0 0 0 0 0 0 0
0 0 0 0 0 0 0 0 0 0 0 0 0 0 0 0 0 0 0 0 0 0 0 0 0 0 0 0 0 0 0 0 0 0 0 0 0 0
0 0 0 0 0 0 0 0 0 0 0 0 0 0 0 0 0 0 0 0 0 0 0 0 0 0 0 0 0 0 0 0 0 0 0 0 0 0
0 0 0 0 0 0 0 0 0 0 0 0 0 0 0 0 0 0 0 0 0 0 0 0 0 0 0 0 0 0 0 0 0 0 0 0 0 0
0 0 0 0 0 0 0 0 0 0 0 0 0 0 0 0 0 0 0 0 0 0 0 0 0 0 0 0 0 0 0 0 0 0 0 0 0 0
0 0 0 0 0 0 0 0 0 0 0 0 0 0 0 0 0 0 0 0 0 0 0 0 0 0 0 0 0 0 0 0 0 0 0 0 0 0
0 0 0 0 0 0 0 0 0 0 0 0 0 0 0 0 0 0 0 0 0 0 0 0 0 0 0 0 0 0 0 0 0 0 0 0 0 0
0 0 0 0 0 0 0 0 0 0 0 0 0 0 0 0 0 0 0 0 0 0 0 0 0 0 0 0 0 0 0 0 0 0 0 0 0 0
0 0 0 0 0 0 0 0 0 0 0 0 0 0 0 0 0 0 0 0 0 0 0 0 0 0 0 0 0 0 0 0 0 0 0 0 0 0
0 0 0 0 0 0 0 0 0 0 0 0 0 0 0 0 0 0 0 0 0 0 0 0 0 0 0 0 0 0 0 0 0 0 0 0 0 0
0 0 0 0 0 0 0 0 0 0 0 0 0 0 0 0 0 0 0 0 0 0 0 0 0 0 0 0 0 0 0 0 0 0 0 0 0 0
0 0 0 0 0 0 0 0 0 0 0 0 0 0 0 0 0 0 0 0 0 0 0 0 0 0 0 0 0 0 0 0 0 0 0 0 0 0
0 0 0 0 0 0 0 0 0 0 0 0 0 0 0 0 0 0 0 0 0 0 0 0 0 0 0 0 0 0 0 0 0 0 0 0 0 0
0 0 0 0 0 0 0 0 0 0 0 0 0 0 0 0 0 0 0 0 0 0 0 0 0 0 0 0 0 0 0 0 0 0 0 0 0 0
0 0 0 0 0 0 0 0 0 0 0 0 0 0 0 0 0 0 0 0 0 0 0 0 0 0 0 0 0 0 0 0 0 0 0 0 0 0
0 0 0 0 0 0 0 0 0 0 0 0 0 0 0 0 0 0 0 0 0 0 0 0 0 0 0 0 0 0 0 0 0 0 0 0 0 0
Wind_Speed
7 8 7 6 6 7 7 6 5 5 5 7 5 7 6 4 5 5 4 7 3 4 6 8 9 10 11 11 12 12 13 13 13 13 11 10 10 8
4 7 7 6 6 7 8 7 7 6 5 4 5 6 7 6 6 5 4 6 3 3 5 6 7 8 9 9 10 10 11 11 12 13 14 14 14 14
5 7 8 8 7 7 7 8 8 7 6 4 4 6 10 9 7 6 5 5 6 4 4 5 6 7 7 7 8 9 9 9 10 11 12 13 15 16
5 7 8 7 9 8 7 8 8 8 7 7 5 6 10 10 9 8 6 4 4 7 4 4 5 5 6 6 6 7 7 8 9 10 10 12 13 14
6 7 8 8 9 8 9 8 8 7 7 6 6 5 6 7 9 8 7 5 5 7 6 5 5 5 4 4 5 6 6 7 8 9 10 12 13 14
8 9 9 9 10 9 8 10 9 9 8 8 7 7 6 7 8 8 8 7 6 6 4 3 5 5 4 4 4 5 6 7 8 9 10 10 11 12
10 10 9 10 10 8 7 8 9 8 8 8 8 8 8 8 9 9 8 7 7 6 6 6 7 6 7 7 5 4 5 7 7 8 9 9 10 10
9 9 9 11 12 13 13 11 9 10 10 10 9 10 12 11 9 9 9 8 6 7 7 6 5 5 5 4 7 5 5 7 8 8 8 9 9 10
10 9 8 8 10 10 12 15 14 15 13 10 11 12 11 11 12 12 11 9 6 7 7 7 6 6 5 5 9 7 6 7 8 8 9 9 8 9
10 10 10 10 9 10 9 10 12 13 14 13 12 10 8 8 11 11 10 8 6 6 7 6 7 6 6 7 11 9 7 7 7 8 8 7 7 7
8 8 9 10 8 8 9 9 9 9 9 11 8 3 2 6 8 7 9 9 7 7 8 6 6 6 6 7 10 12 8 7 7 8 8 8 7 7
5 6 6 7 4 8 9 8 9 8 6 7 8 7 8 10 14 11 9 9 7 7 9 8 6 7 6 7 8 10 9 10 9 9 9 9 9 8
4 3 2 4 5 7 7 5 4 3 5 6 6 7 7 7 10 10 8 7 7 5 8 10 7 7 6 5 7 8 9 9 10 10 10 11 11 9
3 2 2 5 5 6 4 2 3 3 3 3 4 5 6 6 7 8 7 7 6 5 7 10 6 7 7 6 6 8 9 8 9 10 10 13 13 12
1 4 4 6 6 5 4 5 5 3 3 4 4 5 5 6 6 5 6 5 6 4 5 10 6 6 7 7 6 7 8 8 9 9 9 9 10 10
4 6 6 5 3 4 6 5 4 3 2 3 3 3 3 4 5 5 4 4 4 4 6 8 8 7 7 7 6 7 7 7 9 9 9 9 9 9
5 5 5 5 5 4 4 4 3 4 3 3 2 3 3 4 4 5 5 6 6 6 6 5 6 6 7 6 7 7 7 7 7 8 9 8 9 9
3 4 4 3 3 3 3 3 3 3 3 3 3 3 3 4 4 4 4 6 7 7 7 7 6 5 5 7 8 9 9 8 7 8 8 8 9 9
2 2 2 2 2 2 2 3 3 3 3 3 3 4 4 4 4 5 5 6 7 7 6 7 8 9 10 11 11 13 10 8 8 8 9 8 8 7
1 1 1 1 1 2 2 3 3 3 3 4 4 4 4 5 5 5 6 7 7 7 6 7 9 11 12 9 5 7 13 9 8 9 8 7 7 3
1 1 0 0 1 2 2 2 3 3 3 4 4 4 5 5 5 5 6 7 7 7 8 9 10 9 3 1 2 3 5 10 7 5 7 7 7 7
1 0 1 1 2 2 2 3 3 4 4 4 4 4 4 5 6 6 6 6 6 6 7 4 5 6 5 7 6 4 4 5 5 5 6 5 4 4
0 1 1 2 2 3 3 3 4 4 4 4 4 4 4 5 5 5 5 5 5 5 4 3 3 3 5 6 5 4 4 5 4 5 6 8 7 3
Wind_Direction
215 216 223 229 236 245 250 248 242 238 219 193 177 194 190 184 152 215 151 104 71 57 57 53 49 48 50 52 51 51 52 52 50 49 51 55 58 58
216 217 217 226 229 231 237 244 246 243 245 182 168 179 185 182 179 212 109 135 122 79 70 65 59 53 54 56 54 50 48 50 56 57 59 62 63 63
213 225 225 223 225 224 225 230 236 235 234 206 151 181 181 192 172 195 176 195 138 112 85 80 70 62 57 58 56 53 50 51 55 61 66 68 69 68
216 229 235 229 231 227 221 225 227 230 228 211 166 199 194 191 182 188 190 195 164 121 102 94 88 79 70 63 61 60 60 60 60 62 69 75 77 76
217 232 239 234 234 230 224 228 229 228 228 217 172 172 197 194 190 191 197 191 187 149 149 138 115 100 91 81 74 73 75 74 71 67 66 70 75 78
219 229 236 233 235 234 230 233 229 223 218 216 180 173 178 192 194 193 195 193 199 183 169 143 128 136 127 117 104 96 95 94 89 81 73 69 72 79
221 228 237 243 245 242 239 235 229 222 214 214 201 185 181 177 197 195 197 186 194 194 191 185 186 186 164 161 152 127 118 112 104 97 87 79 76 80
230 233 235 239 242 235 236 238 233 225 219 216 213 208 203 197 188 188 190 184 194 187 208 195 197 202 195 173 127 139 141 129 120 113 106 99 92 89
239 239 238 240 240 244 228 222 226 232 239 238 231 228 220 199 187 189 192 196 203 157 194 193 187 207 188 136 144 172 164 148 137 128 123 115 108 105
243 245 242 242 237 238 235 224 224 221 224 234 246 249 240 201 190 195 194 198 187 156 196 203 180 198 183 170 168 187 182 169 159 150 143 133 127 123
246 247 248 246 234 219 229 226 227 228 222 225 248 267 157 169 178 188 182 183 191 186 196 219 180 187 185 192 172 184 192 188 184 180 172 162 155 165
240 241 240 253 240 202 224 223 225 223 210 203 209 193 184 180 182 197 191 198 204 185 186 202 179 183 196 190 184 182 194 195 199 201 194 185 186 213
240 233 217 189 209 200 223 227 224 222 209 205 196 191 189 187 194 212 212 216 220 207 171 190 184 194 213 167 184 193 197 193 195 202 205 199 205 235
244 222 150 155 169 172 191 156 151 193 204 197 189 185 184 183 191 203 213 217 239 245 174 185 188 197 203 193 180 181 197 204 202 202 200 192 205 226
149 86 118 150 162 167 158 165 181 193 195 200 202 196 190 183 176 182 197 210 230 228 192 195 196 198 211 212 194 172 184 201 209 211 209 202 203 206
162 130 130 142 161 130 153 178 196 188 202 209 209 192 173 173 171 165 172 175 194 210 211 205 207 207 214 221 207 191 192 187 192 207 214 218 221 221
157 159 166 168 171 173 180 179 178 180 197 196 197 192 188 185 176 168 168 174 193 197 194 203 210 213 237 227 214 207 198 196 181 190 205 217 222 224
188 183 179 179 180 182 186 188 193 202 203 202 206 209 210 207 194 178 179 190 204 210 199 186 182 186 216 239 238 222 208 203 195 187 199 214 224 218
208 173 173 175 182 185 193 207 210 207 208 217 222 221 220 221 216 208 205 211 218 218 205 183 188 195 206 217 210 213 219 206 199 198 209 220 234 233
75 98 139 173 205 212 210 215 219 218 220 224 227 232 231 229 227 226 221 223 225 223 210 191 200 209 216 225 213 190 216 217 201 208 209 217 234 248
98 74 20 258 245 243 236 238 239 239 239 240 238 236 237 236 236 238 240 237 235 231 224 216 214 211 226 255 218 182 188 219 243 234 216 206 219 226
97 174 233 249 248 247 247 250 254 251 248 248 249 246 244 244 245 243 241 239 234 235 238 220 172 178 193 209 215 203 178 174 209 255 288 277 242 247
342 299 291 277 269 263 257 256 262 268 266 266 267 260 256 252 252 251 248 241 236 227 207 172 161 177 197 207 209 199 187 180 180 191 221 226 234 257